     Oct.  1 18  04 56.36  -26 24.7   1.514  2.077    14.5 / 124   9.1   53  .89

NAKANO

         **** Don't distribute anyone except personal use only ****

                (C) Copyright 2004 OAA/ComputingSection

write mail from CFAD0::NAKANO on 2004-09-01 04:54:08(JST).

 





◎C/2004 Q2の軌道と予報位置です



  追跡観測が報告され,次の軌道を決定しました.なお,彗星は,順調に成長

すれば,年末・年始頃に地球に 0.4AUほどに接近し,4等級くらいまで,明る

くなるでしょう.



    C/2004 Q2 (Machholz)                                                  

T 2005 Jan. 27.36257 TT                                 Nakano

q   1.2858784            (2000.0)            P               Q

                   Peri.   14.82178     -0.29922609     -0.72798804

                   Node    95.91430     +0.80015680     -0.54362262

e   1.0            Incl.   38.32676     +0.51982001     +0.41774139

From 25 observations 2004 Aug. 27-28.



 27h JST R.A.(2000) Decl.    Delta   r      Mot./PA   Elong. Mag.  At twilight

           h  m       。  ,                    ,     。    。    m1    h 。    A 。

Aug. 25  04 13.98  -22 13.1  2.216  2.516   18.8/106   95.1  10.7  +25.6  329.0

     26  04 15.29  -22 18.1  2.197  2.505   18.8/106   95.5  10.7  +25.9  329.9

     27  04 16.59  -22 23.3  2.179  2.494   18.7/106   95.9  10.7  +26.2  330.8

     28  04 17.88  -22 28.5  2.160  2.484   18.6/107   96.4  10.6  +26.5  331.7

     29  04 19.17  -22 33.9  2.142  2.473   18.6/107   96.8  10.6  +26.8  332.6

     30  04 20.45  -22 39.4  2.123  2.462   18.5/108   97.2  10.5  +27.0  333.5

     31  04 21.73  -22 45.0  2.105  2.452   18.4/108   97.6  10.5  +27.3  334.5

Sept. 1  04 22.99  -22 50.7  2.086  2.441   18.3/109   98.0  10.5  +27.5  335.4

      2  04 24.25  -22 56.5  2.068  2.430   18.3/109   98.4  10.4  +27.7  336.3

      3  04 25.50  -23 02.4  2.050  2.419   18.2/109   98.8  10.4  +27.9  337.2

      4  04 26.75  -23 08.4  2.032  2.409   18.1/110   99.2  10.4  +28.1  338.2

      5  04 27.98  -23 14.5  2.013  2.398   18.0/110   99.7  10.3  +28.3  339.1

      6  04 29.21  -23 20.7  1.995  2.387   17.9/111  100.1  10.3  +28.5  340.1

      7  04 30.42  -23 27.1  1.977  2.377   17.8/111  100.5  10.2  +28.6  341.0

      8  04 31.63  -23 33.5  1.959  2.366   17.7/112  100.9  10.2  +28.7  342.0

      9  04 32.83  -23 40.0  1.941  2.355   17.6/112  101.3  10.2  +28.9  342.9

     10  04 34.01  -23 46.6  1.923  2.345   17.5/113  101.7  10.1  +29.0  343.9

     11  04 35.19  -23 53.3  1.906  2.334   17.4/113  102.1  10.1  +29.1  344.9

     12  04 36.36  -24 00.0  1.888  2.323   17.2/114  102.5  10.0  +29.1  345.8

     13  04 37.51  -24 06.9  1.870  2.313   17.1/114  102.9  10.0  +29.2  346.8

     14  04 38.65  -24 13.9  1.853  2.302   17.0/114  103.3  10.0  +29.3  347.8

     15  04 39.79  -24 20.9  1.835  2.291   16.9/115  103.7   9.9  +29.3  348.8

     16  04 40.90  -24 28.0  1.818  2.281   16.7/115  104.1   9.9  +29.3  349.8

     17  04 42.01  -24 35.1  1.800  2.270   16.6/116  104.4   9.8  +29.3  350.7

     18  04 43.10  -24 42.4  1.783  2.259   16.4/116  104.8   9.8  +29.3  351.7

     19  04 44.18  -24 49.7  1.765  2.249   16.3/117  105.2   9.8  +29.3  352.7

     20  04 45.25  -24 57.1  1.748  2.238   16.1/117  105.6   9.7  +29.3  353.7

     21  04 46.30  -25 04.5  1.731  2.228   16.0/118  106.0   9.7  +29.2  354.7

     22  04 47.34  -25 12.0  1.714  2.217   15.8/119  106.4   9.6  +29.2  355.6

     23  04 48.36  -25 19.5  1.697  2.206   15.6/119  106.8   9.6  +29.1  356.6

     24  04 49.37  -25 27.0  1.680  2.196   15.4/120  107.2   9.5  +29.0  357.6

     25  04 50.37  -25 34.7  1.663  2.185   15.3/120  107.5   9.5  +28.9  358.6

     26  04 51.34  -25 42.3  1.646  2.175   15.1/121  107.9   9.5  +28.8  359.6

     27  04 52.30  -25 50.0  1.629  2.164   14.9/121  108.3   9.4  +28.7    0.6

     28  04 53.25  -25 57.7  1.613  2.154   14.7/122  108.7   9.4  +28.5    1.5

     29  04 54.18  -26 05.4  1.596  2.143   14.5/122  109.0   9.3  +28.4    2.5

     30  04 55.09  -26 13.2  1.579  2.133   14.3/123  109.4   9.3  +28.2    3.5

Oct.  1  04 55.98  -26 20.9  1.563  2.122   14.1/124  109.8   9.2  +28.0    4.5

NAKANO

         **** Don't distribute anyone except personal use only ****

                (C) Copyright 2004 OAA/ComputingSection

write mail from CFAD0::NAKANO on 2004-08-29 04:07:41(JST).

 

◎C/2004 Q2の予報位置です



  昨夜(8月27日23時34分)に,複数名の方に確認依頼を送りましたが,誰からも

応答がありませんでした.



 27h JST R.A.(2000) Decl.    Delta   r      Mot./PA   Elong. Mag.  At twilight

           h  m       。  ,                    ,     。    。    m1     h。    A 。

Aug. 25  04 13.94  -22 13.0  2.239  2.537   19.2/105   95.1  10.8  +25.6  329.1

     26  04 15.27  -22 18.1  2.232  2.537   18.9/106   95.5  10.8  +25.9  329.9

     27  04 16.59  -22 23.3  2.226  2.537   18.7/106   95.9  10.8  +26.2  330.8

     28  04 17.88  -22 28.5  2.219  2.537   18.4/107   96.4  10.8  +26.5  331.7

     29  04 19.15  -22 33.7  2.212  2.537   18.1/107   96.8  10.8  +26.8  332.6

     30  04 20.40  -22 39.0  2.205  2.538   17.9/107   97.2  10.8  +27.1  333.6

     31  04 21.64  -22 44.3  2.198  2.538   17.6/108   97.6  10.8  +27.3  334.5

Sept. 1  04 22.85  -22 49.7  2.192  2.538   17.3/108   98.0  10.7  +27.5  335.4

      2  04 24.03  -22 55.1  2.185  2.538   17.0/109   98.5  10.7  +27.8  336.4

      3  04 25.20  -23 00.6  2.179  2.538   16.7/109   98.9  10.7  +28.0  337.3

      4  04 26.34  -23 06.0  2.172  2.539   16.4/110   99.3  10.7  +28.2  338.3

      5  04 27.47  -23 11.6  2.166  2.539   16.1/110   99.8  10.7  +28.4  339.2

NAKANO

         **** Don't distribute anyone except personal use only ****

                (C) Copyright 2004 OAA/ComputingSection

write mail from CFAD0::NAKANO on 2004-08-28 22:55:05(JST).

